Weather History for KFTK - June, 2013

Change the Weather History Date:

Saturday, June 22, 2013

  Actual Average Record
Temperature  
Mean Temperature 76 °F -  
Max Temperature 88 °F 81 °F 91 °F (2006)
Min Temperature 64 °F 63 °F 59 °F (2001)
Cooling Degree Days 11    
Growing Degree Days 26 (Base 50)    
Moisture  
Dew Point 68 °F    
Average Humidity 77    
Maximum Humidity 100    
Minimum Humidity 49    
Precipitation  
Precipitation 0.00 in - - ()
Sea Level Pressure  
Sea Level Pressure 30.13 in    
Wind  
Wind Speed 5 mph (SSE)    
Max Wind Speed 10 mph    
Max Gust Speed -    
Visibility 10 miles    
Events Rain    
Averages and records for this station are not official NWS values.
T = Trace of Precipitation, MM = Missing Value Source: NWS Daily Summary

Daily Weather History Graph

Daily Weather History Graph

Search for Another Location

Airport or City:

Trip Planner

Search our weather history database for the weather conditions in past years. The results will help you decide how hot, cold, wet, or windy it might be!

Date:

Astronomy

Jun. 22, 2013 Rise Set
Actual Time 6:22 AM EDT 9:09 PM EDT
Civil Twilight 5:50 AM EDT 9:41 PM EDT
Nautical Twilight 5:11 AM EDT 10:20 PM EDT
Astronomical Twilight 4:26 AM EDT 11:05 PM EDT
Moon 8:24 PM EDT (6/22) 5:33 AM EDT (6/22)
Length of Visible Light 15h 50m
Length of Day
14h 47m
Waxing Gibbous, 99% of the Moon is Illuminated
Jun 22
Waxing Gibbous
Jun 23
Full
Jun 30
Last Quarter
Jul 8
New
Jul 15
First Quarter

Hourly Weather History & Observations

Time (EDT) Temp. Heat Index Dew Point Humidity Pressure Visibility Wind Dir Wind Speed Gust Speed Precip Events Conditions
12:58 AM 72.9 °F - 68.2 °F 85% 30.11 in 10.0 mi South 8.1 mph - N/A   Clear
1:58 AM 70.2 °F - 67.5 °F 91% 30.14 in 10.0 mi West 4.6 mph - N/A   Clear
2:38 AM 69.8 °F - 68.0 °F 94% 30.15 in 10.0 mi South 2.3 mph - N/A Rain Light Rain
2:52 AM 68.0 °F - 66.2 °F 94% 30.14 in 10.0 mi ESE 1.2 mph - N/A   Clear
2:58 AM 68.0 °F - 67.1 °F 97% 30.13 in 10.0 mi SE 1.2 mph - 0.00 in   Clear
3:58 AM 68.2 °F - 67.1 °F 96% 30.13 in 10.0 mi East 1.2 mph - N/A   Clear
4:58 AM 66.7 °F - 65.1 °F 95% 30.11 in 10.0 mi SSE 2.3 mph - N/A   Clear
5:58 AM 64.9 °F - 64.9 °F 100% 30.12 in 2.0 mi Calm Calm - N/A   Clear
6:08 AM 64.4 °F - 64.4 °F 100% 30.14 in 7.0 mi Calm Calm - N/A   Clear
6:58 AM 67.3 °F - 65.7 °F 95% 30.15 in 10.0 mi ESE 3.5 mph - N/A   Clear
7:58 AM 70.2 °F - 66.7 °F 89% 30.17 in 10.0 mi SSE 3.5 mph - N/A   Clear
8:58 AM 74.3 °F - 67.8 °F 80% 30.18 in 10.0 mi South 5.8 mph - N/A   Clear
9:58 AM 78.6 °F - 69.3 °F 73% 30.19 in 10.0 mi South 6.9 mph - N/A   Clear
10:58 AM 81.9 °F 85.6 °F 69.8 °F 67% 30.19 in 10.0 mi SSW 5.8 mph - N/A   Clear
11:58 AM 84.2 °F 88.4 °F 70.0 °F 62% 30.18 in 10.0 mi Variable 4.6 mph - N/A   Partly Cloudy
12:58 PM 86.0 °F 90.4 °F 69.8 °F 58% 30.17 in 10.0 mi SSW 6.9 mph - N/A   Clear
1:58 PM 86.7 °F 91.7 °F 70.3 °F 58% 30.15 in 10.0 mi SSE 10.4 mph - N/A   Partly Cloudy
2:58 PM 87.3 °F 90.2 °F 66.9 °F 51% 30.13 in 10.0 mi South 8.1 mph - N/A   Partly Cloudy
3:58 PM 87.8 °F 91.1 °F 67.6 °F 51% 30.11 in 10.0 mi SSW 8.1 mph - N/A   Partly Cloudy
4:58 PM 88.3 °F 91.6 °F 67.8 °F 50% 30.09 in 10.0 mi SSW 9.2 mph - N/A   Mostly Cloudy
5:58 PM 88.0 °F 90.7 °F 66.9 °F 49% 30.08 in 10.0 mi SSW 5.8 mph - N/A   Partly Cloudy
6:58 PM 85.6 °F 88.8 °F 68.0 °F 55% 30.07 in 10.0 mi South 6.9 mph - N/A   Scattered Clouds
7:58 PM 80.8 °F 83.2 °F 67.1 °F 63% 30.08 in 10.0 mi WNW 3.5 mph - N/A   Clear
8:58 PM 76.8 °F - 69.1 °F 77% 30.08 in 10.0 mi Calm Calm - N/A   Clear
9:58 PM 73.4 °F - 68.0 °F 83% 30.09 in 10.0 mi North 9.2 mph - N/A   Clear
10:58 PM 71.8 °F - 67.3 °F 86% 30.09 in 10.0 mi North 1.2 mph - N/A   Clear
11:58 PM 72.3 °F - 67.1 °F 84% 30.09 in 10.0 mi East 4.6 mph - N/A   Clear